Weather History for Salem, OR

Change the Weather History Date:

Friday, April 19, 2013

  Actual Average Record
Temperature  
Mean Temperature 52 °F 51 °F  
Max Temperature 59 °F 62 °F 82 °F (1934)
Min Temperature 44 °F 40 °F 26 °F (1967)
Degree Days  
Heating Degree Days 13 14  
Month to date heating degree days 280 294  
Since 1 July heating degree days 3872 4097  
Cooling Degree Days 0 0  
Month to date cooling degree days 0 0  
Year to date cooling degree days 0 0  
Growing Degree Days 4 (Base 50)    
Moisture  
Dew Point 48 °F    
Average Humidity 84    
Maximum Humidity 96    
Minimum Humidity 72    
Precipitation  
Precipitation 0.28 in 0.09 in 1.01 in (1997)
Month to date precipitation 2.34 1.92  
Year to date precipitation 7.60 16.43  
Snow  
Snow 0.00 in - - ()
Month to date snowfall 0.0  
Snow Depth 0.00 in    
Sea Level Pressure  
Sea Level Pressure 30.25 in    
Wind  
Wind Speed 9 mph (SSW)    
Max Wind Speed 20 mph    
Max Gust Speed 25 mph    
Visibility 9 miles    
Events Rain    
T = Trace of Precipitation, MM = Missing Value Source: NWS Daily Summary

Daily Weather History Graph

Daily Weather History Graph

Search for Another Location

Airport:

Trip Planner

Search our weather history database for the weather conditions in past years. The results will help you decide how hot, cold, wet, or windy it might be!

Date:

Astronomy

Apr. 19, 2013 Rise Set
Actual Time 6:20 AM PDT 8:02 PM PDT
Civil Twilight 5:49 AM PDT 8:33 PM PDT
Nautical Twilight 5:11 AM PDT 9:11 PM PDT
Astronomical Twilight 4:30 AM PDT 9:52 PM PDT
Moon 1:37 PM PDT (4/19) 2:54 AM PDT (4/19)
Length of Visible Light 14h 44m
Length of Day
13h 42m
Waxing Gibbous, 62% of the Moon is Illuminated
Apr 19
Waxing Gibbous
Apr 25
Full
May 2
Last Quarter
May 9
New
May 17
First Quarter

Hourly Weather History & Observations

Time (PDT) Temp. Dew Point Humidity Pressure Visibility Wind Dir Wind Speed Gust Speed Precip Events Conditions
12:56 AM 50.0 °F 48.0 °F 93% 30.32 in 10.0 mi SW 3.5 mph - 0.02 in Rain Light Rain
1:56 AM 50.0 °F 48.0 °F 93% 30.31 in 10.0 mi South 5.8 mph - 0.01 in Rain Light Rain
2:56 AM 50.0 °F 48.9 °F 96% 30.29 in 10.0 mi South 9.2 mph - 0.03 in Rain Light Rain
3:56 AM 50.0 °F 48.0 °F 93% 30.27 in 10.0 mi SSE 9.2 mph - 0.03 in Rain Light Rain
4:56 AM 48.9 °F 48.0 °F 97% 30.24 in 10.0 mi South 9.2 mph - 0.01 in Rain Light Rain
5:56 AM 50.0 °F 48.0 °F 93% 30.22 in 10.0 mi South 12.7 mph - 0.00 in   Overcast
6:41 AM 48.2 °F 48.2 °F 100% 30.22 in 6.0 mi South 8.1 mph - 0.09 in Rain Rain
6:56 AM 50.0 °F 48.0 °F 93% 30.21 in 3.0 mi South 10.4 mph - 0.12 in Rain Rain
8:56 AM 50.0 °F 48.0 °F 93% 30.20 in 7.0 mi South 10.4 mph - 0.00 in   Overcast
9:56 AM 51.1 °F 48.9 °F 92% 30.19 in 10.0 mi SSE 15.0 mph - N/A   Overcast
10:03 AM 51.8 °F 48.2 °F 88% 30.19 in 10.0 mi South 15.0 mph 23.0 mph N/A   Overcast
10:56 AM 52.0 °F 50.0 °F 93% 30.20 in 7.0 mi South 16.1 mph 21.9 mph 0.00 in   Overcast
11:56 AM 55.0 °F 51.1 °F 86% 30.21 in 10.0 mi SSW 13.8 mph 19.6 mph N/A   Overcast
12:56 PM 59.0 °F 53.1 °F 81% 30.22 in 10.0 mi SSW 13.8 mph 21.9 mph N/A   Mostly Cloudy
1:56 PM 57.0 °F 53.1 °F 87% 30.23 in 10.0 mi West 6.9 mph - 0.00 in Rain Light Rain
2:03 PM 57.2 °F 51.8 °F 82% 30.23 in 10.0 mi SW 6.9 mph - N/A   Overcast
2:56 PM 59.0 °F 50.0 °F 72% 30.24 in 10.0 mi West 5.8 mph - N/A   Mostly Cloudy
3:56 PM 57.9 °F 50.0 °F 75% 30.25 in 10.0 mi WSW 3.5 mph - N/A   Overcast
4:56 PM 57.0 °F 48.0 °F 72% 30.26 in 10.0 mi SW 10.4 mph 16.1 mph 0.00 in Rain Light Rain
5:07 PM 57.2 °F 48.2 °F 72% 30.26 in 10.0 mi WSW 9.2 mph - 0.00 in   Overcast
5:56 PM 55.0 °F 48.0 °F 77% 30.27 in 10.0 mi WNW 6.9 mph - 0.00 in   Overcast
6:21 PM 55.4 °F 46.4 °F 72% 30.27 in 10.0 mi WSW 6.9 mph - N/A   Overcast
6:56 PM 55.9 °F 46.9 °F 72% 30.26 in 10.0 mi SSW 8.1 mph - N/A   Overcast
7:56 PM 53.1 °F 46.0 °F 77% 30.27 in 10.0 mi WSW 8.1 mph - N/A   Mostly Cloudy
8:56 PM 51.1 °F 46.0 °F 83% 30.28 in 10.0 mi SSW 3.5 mph - N/A   Mostly Cloudy
9:12 PM 50.0 °F 46.4 °F 87% 30.29 in 10.0 mi SSW 4.6 mph - N/A   Mostly Cloudy
9:56 PM 50.0 °F 46.0 °F 86% 30.30 in 10.0 mi SW 5.8 mph - N/A   Overcast
10:13 PM 50.0 °F 46.4 °F 87% 30.30 in 10.0 mi SW 5.8 mph - N/A   Overcast
10:56 PM 48.9 °F 46.0 °F 90% 30.31 in 10.0 mi SSE 4.6 mph - N/A   Overcast
11:56 PM 46.9 °F 45.0 °F 93% 30.31 in 10.0 mi South 5.8 mph - N/A   Scattered Clouds